{"data":{"norad_id":61049,"epoch":"2026-05-24T01:09:31.066272Z","epoch_age_seconds":160382,"freshness":"FRESH","line1":"1 61049U 24163E   26144.04827623  .00017209  00000+0  78223-3 0  9998","line2":"2 61049  52.9764  59.9333 0010470  70.4921 289.7203 15.20818789 94094","mean_motion":15.20818789,"eccentricity":0.001047,"inclination_deg":52.9764,"raan_deg":59.9333,"arg_perigee_deg":70.4921,"mean_anomaly_deg":289.7203,"bstar":0.00078223,"rev_number":9409,"period_min":94.685837025124,"perigee_km":496.16462543418,"apogee_km":510.57450017669,"semimajor_km":6881.5065628054,"source":"CELESTRAK","updated_at":"2026-05-25T13:38:02.301228Z"}}